This is the latest recevied weather packets stored in our database for station/object WK1F-2. If no packets are shown the sender has not sent any weather packets the latest 10 day(s).
| Time | Temp. | Humidity | Pressure | Rain* | Wind** | Luminosity | Snow |
|---|---|---|---|---|---|---|---|
| 1788553970 | 26.67° C | 97% | 1013.4 hPa | 0 mm | - | - | - |
| 1788553670 | 26.67° C | 97% | 1013.4 hPa | 0 mm | - | - | - |
| 1788553370 | 26.67° C | 97% | 1013.5 hPa | 0 mm | - | - | - |
| 1788553070 | 26.67° C | 97% | 1013.6 hPa | 0 mm | - | - | - |
| 1788552770 | 26.67° C | 97% | 1013.9 hPa | 0 mm | - | - | - |
| 1788552470 | 26.67° C | 97% | 1014.2 hPa | 0 mm | - | - | - |
| 1788552170 | 26.67° C | 97% | 1014.3 hPa | 0 mm | - | - | - |
| 1788551870 | 26.67° C | 97% | 1014.3 hPa | 0 mm | - | - | - |
| 1788551570 | 26.67° C | 97% | 1014.4 hPa | 0 mm | - | - | - |
| 1788551270 | 26.67° C | 97% | 1014.5 hPa | 0 mm | - | - | - |
| 1788550970 | 26.67° C | 97% | 1014.5 hPa | 0 mm | - | - | - |
| 1788550670 | 26.67° C | 97% | 1014.4 hPa | 0.25 mm | - | - | - |
| 1788550370 | 26.67° C | 97% | 1014.4 hPa | 0.25 mm | - | - | - |
| 1788550070 | 26.67° C | 97% | 1014.5 hPa | 0.25 mm | - | - | - |
| 1788549770 | 26.67° C | 97% | 1014.6 hPa | 0.51 mm | - | - | - |
| 1788549470 | 26.67° C | 97% | 1014.7 hPa | 0.76 mm | - | - | - |
| 1788549170 | 26.67° C | 97% | 1014.6 hPa | 1.02 mm | - | - | - |
| 1788548870 | 26.67° C | 97% | 1014.5 hPa | 1.27 mm | - | - | - |
| 1788548570 | 26.67° C | 97% | 1014.6 hPa | 1.52 mm | - | - | - |
| 1788548270 | 26.67° C | 97% | 1014.4 hPa | 1.78 mm | - | - | - |
| 1788547970 | 26.67° C | 97% | 1014.5 hPa | 1.78 mm | - | - | - |
| 1788547670 | 26.67° C | 97% | 1014.7 hPa | 1.78 mm | - | - | - |
| 1788547370 | 26.67° C | 97% | 1014.8 hPa | 2.03 mm | - | - | - |
| 1788547070 | 26.67° C | 97% | 1014.8 hPa | 2.29 mm | - | - | - |
| 1788546770 | 26.67° C | 97% | 1014.8 hPa | 3.3 mm | - | - | - |
* Rain latest hour (hover to see other rain measurements)
** Current wind speed in m/s (hover to see current wind gust speed)